Probability
0 0 0 0 0 0 0 0 0 0 0 0 0 0 0 0 0 0 0 0 0 0 0 0 0 0 0 0 0 0 0 0 0 0 0 0 0 0
0 0 0 0 0 0 0 0 0 0 0 0 0 0 0 0 0 0 0 0 0 0 0 0 0 0 0 0 0 0 0 0 0 0 0 0 0 0
0 0 0 0 0 0 0 0 0 0 0 0 0 0 0 0 0 0 0 0 0 0 0 0 0 0 0 0 0 0 0 0 0 0 0 0 0 0
0 0 0 0 0 0 0 0 0 0 0 0 0 0 0 0 0 0 0 0 0 0 0 0 0 0 0 0 0 0 0 0 0 0 0 0 0 0
0 0 0 0 0 0 0 0 0 0 0 0 0 0 0 0 0 0 0 0 0 0 0 0 0 0 0 0 0 0 0 0 0 0 0 0 0 0
0 0 0 0 0 0 0 0 0 0 0 0 0 0 0 0 0 0 0 0 0 0 0 0 0 0 0 0 0 0 0 0 0 0 0 0 0 0
0 0 0 0 0 0 0 0 0 0 0 0 0 0 0 0 0 0 0 0 0 0 0 0 0 0 0 0 0 0 0 0 0 0 0 0 0 0
0 0 0 0 0 0 0 0 0 0 0 0 0 0 0 0 0 0 0 0 0 0 0 0 0 0 0 0 0 0 0 0 0 0 0 0 0 0
0 0 0 0 0 0 0 0 0 0 0 0 0 0 0 0 0 0 0 0 0 0 0 0 0 0 0 0 0 0 0 0 0 0 0 0 0 0
0 0 0 0 0 0 0 0 0 0 0 0 0 0 0 0 0 0 0 0 0 0 0 0 0 0 0 0 0 0 0 0 0 0 0 0 0 0
0 0 0 0 0 0 0 0 0 0 0 0 0 0 0 0 0 0 0 0 0 0 0 0 0 0 0 0 0 0 0 0 0 0 0 0 0 0
0 0 0 0 0 0 0 0 0 0 0 0 0 0 0 0 0 0 0 0 0 0 0 0 0 0 0 0 0 0 0 0 0 0 0 0 0 0
0 0 0 0 0 0 0 0 0 0 0 0 0 0 0 0 0 0 0 0 0 0 0 0 0 0 0 0 0 0 0 0 0 0 0 0 0 0
0 0 0 0 0 0 0 0 0 0 0 0 0 0 0 0 0 0 0 0 0 0 0 0 0 0 0 0 0 0 0 0 0 0 0 0 0 0
0 0 0 0 0 0 0 0 0 0 0 0 0 0 0 0 0 0 0 0 0 0 0 0 0 0 0 0 0 0 0 0 0 0 0 0 0 0
0 0 0 0 0 0 0 0 0 0 0 0 0 0 0 0 0 0 0 0 0 0 0 0 0 0 0 0 0 0 0 0 0 0 0 0 0 0
0 0 0 0 0 0 0 0 0 0 0 0 0 0 0 0 0 0 0 0 0 0 0 0 0 0 0 0 0 0 0 0 0 0 0 0 0 0
0 0 0 0 0 0 0 0 0 0 0 0 0 0 0 0 0 0 0 0 0 0 0 0 0 0 0 0 0 0 0 0 0 0 0 0 0 0
0 0 0 0 0 0 0 0 0 0 0 0 0 0 0 0 0 0 0 0 0 0 0 0 0 0 0 0 0 0 0 0 0 0 0 0 0 0
0 0 0 0 0 0 0 0 0 0 0 0 0 0 0 0 0 0 0 0 0 0 0 0 0 0 0 0 0 0 0 0 0 0 0 0 0 0
0 0 0 0 0 0 0 0 0 0 0 0 0 0 0 0 0 0 0 0 0 0 0 0 0 0 0 0 0 0 0 0 0 0 0 0 0 0
0 0 0 0 0 0 0 0 0 0 0 0 0 0 0 0 0 0 0 0 0 0 0 0 0 0 0 0 0 0 0 0 0 0 0 0 0 0
0 0 0 0 0 0 0 0 0 0 0 0 0 0 0 0 0 0 0 0 0 0 0 0 0 0 0 0 0 0 0 0 0 0 0 0 0 0
Wind_Speed
4 5 4 3 3 3 3 3 3 3 4 3 2 2 1 1 2 1 2 4 4 4 4 5 5 6 6 7 8 8 9 9 9 9 9 9 9 9
3 4 4 3 3 3 3 3 3 4 4 2 3 1 1 1 2 1 2 4 4 5 5 5 5 6 6 7 7 7 8 8 8 8 9 9 9 10
4 4 5 4 3 3 3 3 3 4 5 3 1 1 1 1 2 1 1 2 3 5 5 5 5 5 6 6 7 7 8 8 8 9 9 9 9 9
5 5 5 3 4 3 3 4 4 4 4 4 2 1 2 2 1 2 2 2 2 4 5 5 6 5 6 6 7 7 7 7 8 8 8 9 9 10
5 5 5 4 4 3 4 4 3 3 3 3 3 1 1 1 1 2 2 2 3 3 5 6 6 6 6 7 7 6 7 7 8 8 8 9 9 10
5 5 5 5 5 5 4 4 3 3 3 3 3 2 1 1 0 1 2 2 3 2 4 4 5 6 7 7 7 6 7 7 8 8 8 9 9 10
4 4 5 5 6 4 4 4 4 3 3 3 3 2 2 1 2 1 3 2 3 1 2 3 3 3 3 5 6 6 7 7 8 8 8 9 10 10
4 3 3 4 4 6 6 5 5 4 4 4 3 3 3 3 2 2 2 2 3 1 1 3 1 3 2 2 5 6 7 8 8 8 9 9 10 10
3 2 2 2 2 2 4 4 4 4 5 4 4 5 4 4 3 3 3 3 3 1 1 3 1 3 2 3 6 6 7 7 7 8 9 9 10 10
3 3 3 2 2 2 1 1 2 3 3 3 3 4 3 2 3 3 3 2 2 1 1 3 2 3 3 3 6 7 6 7 7 8 9 9 10 11
2 2 2 2 3 3 2 2 2 2 3 3 3 2 2 2 1 1 1 1 2 2 1 2 1 2 3 3 4 6 6 7 7 8 8 9 10 10
1 2 3 4 4 5 3 3 3 3 2 1 2 2 1 2 2 2 3 2 2 2 2 2 1 1 3 2 2 2 3 6 7 8 9 9 10 6
2 2 2 4 5 5 4 3 4 2 1 1 1 1 1 1 1 1 1 2 3 3 2 2 1 1 2 3 3 2 2 2 3 4 7 9 9 7
2 2 2 3 3 3 3 2 2 1 1 1 0 1 1 2 1 1 1 2 2 3 3 2 2 2 2 3 4 3 2 2 3 3 3 7 8 9
1 1 1 1 1 1 1 1 1 1 1 1 1 2 2 2 1 1 1 1 1 1 2 2 2 2 2 3 4 3 3 3 2 3 4 4 4 4
1 1 1 0 1 1 1 0 0 1 1 1 1 1 1 1 1 1 1 0 1 2 1 2 2 3 3 4 4 4 3 3 3 3 4 4 4 3
1 0 0 0 0 1 1 1 0 0 1 1 1 0 0 0 1 0 0 0 1 2 2 1 1 2 3 3 4 4 4 4 3 4 4 5 4 4
1 1 1 1 1 1 1 1 0 1 1 1 1 1 1 1 1 0 0 1 2 2 2 2 1 1 2 2 4 4 3 3 3 3 2 4 5 4
1 1 1 2 2 2 1 1 1 1 1 1 1 1 1 1 1 1 1 1 1 2 2 2 1 1 2 4 3 3 3 3 3 3 3 3 5 6
1 2 2 2 2 2 2 2 1 1 1 1 2 2 2 2 2 2 2 2 2 2 2 1 2 2 4 4 3 4 4 3 3 4 4 4 6 8
1 2 2 2 2 2 2 2 2 2 2 2 2 2 2 2 2 2 2 2 2 2 2 3 3 3 2 1 2 4 3 4 5 4 3 4 5 5
2 2 2 2 2 2 2 2 2 2 2 2 2 2 2 2 3 3 2 2 2 2 3 3 2 1 1 2 4 4 5 4 5 7 8 7 4 4
2 2 2 2 2 2 2 2 3 2 2 2 2 2 2 2 3 2 3 2 2 2 2 2 1 1 1 2 3 4 5 5 4 4 5 8 11 13
Wind_Direction
225 227 229 231 224 216 203 195 202 247 258 248 253 257 251 237 268 259 267 281 280 271 269 271 274 273 273 273 274 272 272 275 276 278 281 284 287 290
221 225 231 233 233 221 215 215 213 222 252 243 229 257 250 254 263 244 257 281 285 283 276 272 269 270 273 276 277 277 274 274 277 280 284 285 286 288
223 226 232 225 226 226 222 218 218 215 242 264 233 250 234 253 289 285 272 263 277 280 278 274 272 274 275 275 278 280 275 273 278 286 289 289 289 294
227 227 233 225 227 226 223 224 226 222 228 255 259 244 245 256 270 282 288 281 276 281 273 271 272 274 278 278 279 282 281 278 281 286 290 292 293 295
226 227 232 223 227 228 229 229 230 229 229 242 258 247 253 270 307 303 293 294 287 288 274 270 268 272 275 275 276 280 283 282 282 287 292 294 293 294
232 232 228 224 225 223 225 228 227 228 228 238 254 259 251 275 285 286 300 296 291 299 278 276 273 271 272 272 273 275 276 277 280 285 289 291 292 293
237 239 238 235 233 227 227 223 217 223 225 235 248 257 257 254 241 239 263 288 285 263 281 275 271 268 269 273 271 269 271 274 278 284 287 288 289 290
237 244 247 238 241 240 243 236 225 221 221 225 238 241 246 241 240 232 246 276 277 265 270 282 262 264 273 268 276 275 275 278 281 284 285 286 288 289
235 242 249 256 248 247 251 252 246 246 231 221 233 240 239 228 217 228 237 243 253 267 256 276 279 275 285 281 278 276 280 285 288 288 287 286 288 289
232 231 231 244 241 225 224 240 243 248 245 233 230 245 250 235 213 222 229 252 287 274 201 258 278 276 296 287 279 278 281 285 290 293 295 295 295 295
238 230 228 231 244 231 210 211 250 274 277 257 254 269 284 267 216 160 176 216 269 258 201 225 274 298 299 287 286 287 291 293 294 298 304 303 302 299
235 235 236 234 239 226 205 198 231 256 261 285 290 299 290 268 226 197 188 202 232 253 213 195 225 288 303 295 299 302 297 293 294 300 304 305 305 302
226 238 244 245 242 231 213 210 236 243 200 208 271 311 325 297 260 231 201 200 208 237 207 175 199 201 227 288 303 292 283 289 295 293 297 302 305 304
229 243 252 248 247 241 233 236 241 190 134 149 195 271 272 268 270 258 245 238 230 230 217 186 198 199 220 270 285 299 297 289 284 285 289 301 301 300
236 249 262 247 254 259 268 236 162 146 142 174 225 259 275 274 279 280 281 283 302 281 236 224 214 216 218 238 263 277 294 292 275 282 293 293 289 291
251 275 261 218 64 60 35 308 170 168 182 205 241 286 333 348 307 283 235 256 297 307 294 252 229 214 231 244 248 267 266 275 295 293 294 287 282 273
162 150 100 53 21 357 359 12 33 117 158 176 186 216 243 245 285 338 270 186 238 273 296 302 259 238 237 234 252 256 266 275 280 298 298 294 285 274
156 180 188 198 218 241 251 262 252 215 205 201 210 215 220 228 262 260 155 209 246 259 272 286 304 316 307 275 229 252 266 269 282 287 285 287 289 287
174 190 204 211 221 226 224 228 238 236 207 199 209 217 219 222 236 235 221 229 252 264 265 253 233 211 258 282 287 228 239 271 289 289 276 263 274 285
198 207 216 215 218 221 218 222 228 226 212 206 210 215 213 219 228 226 220 226 247 260 277 273 241 227 225 245 271 281 255 249 264 279 284 282 274 282
232 224 222 219 221 221 220 218 216 216 217 217 217 218 218 215 228 227 226 231 239 245 256 267 274 281 257 243 273 282 278 262 262 262 273 287 294 299
233 233 233 222 217 216 214 212 215 220 216 222 232 229 224 220 226 225 225 230 239 242 255 274 289 290 242 239 261 279 295 305 294 285 268 250 247 264
244 238 234 227 217 208 208 211 215 224 223 223 227 234 231 232 228 223 227 227 232 243 257 280 299 293 268 263 275 281 287 298 305 306 288 276 270 270